Location: Castelnau
(43.6639°N, 0.8431°W)
Time: 19:37:46
(UTC+00:00)

MOS 1 Rocket - Pass Details

Date: 13 January 2026
Orbit: 608 x 815 km, 97.4° (Epoch: 11 February)

Event Time Altitude Azimuth Distance (km) Brightness Sun altitude
Rises 06:35:52 0° 11° (NNE) 3,067 6.5 -10.5°
Reaches altitude 10° 06:38:10 10° 11° (NNE) 2,114 5.7 -10.1°
Maximum altitude 06:42:47 87° 283° (WNW) 654 3.1 -9.4°
Drops below altitude 10° 06:47:07 10° 195° (SSW) 1,996 5.8 -8.6°
Sets 06:49:15 0° 195° (SSW) 2,881 6.6 -8.3°
